Regional Weather Roundup
Issued by NWS Sioux Falls, SD

Home | Current Version | Previous Version | Graphics & Text | Print | Product List | Glossary On
Versions: 1 2 3 4 5 6 7 8 9 10 11 12 13 14 15 16 17 18 19 20 21 22 23 24 25 26 27 28 29 30 31 32 33 34 35 36 37 38 39 40 41 42 43 44 45 46 47 48 49 50
000
ASUS43 KFSD 250010
RWRFSD

WEATHER ROUNDUP FOR SE SOUTH DAKOTA/SW MINNESOTA/NW IOWA
NATIONAL WEATHER SERVICE SIOUX FALLS SD
700 PM CDT TUE APR 24 2018

NOTE: "FAIR" INDICATES FEW OR NO CLOUDS BELOW 12,000 FEET WITH NO
SIGNIFICANT WEATHER AND OR OBSTRUCTIONS TO VISIBILITY.


SDZ038>040-050-052>070-250100-
SOUTHEAST SOUTH DAKOTA

CITY           SKY/WX    TMP DP  RH WIND       PRES   REMARKS
BROOKINGS      CLOUDY    47  38  71 N12       30.27S
CHAMBERLAIN    CLOUDY    44  42  92 NW8       30.37S
6HR MIN TEMP:  42; 6HR MAX TEMP:  44;

HURON          CLOUDY    46  40  79 NW10      30.33F
6HR MIN TEMP:  43; 6HR MAX TEMP:  46; 6HR PCP: TRACE;

MADISON        CLOUDY    45  45 100 N14       30.28S
MITCHELL       CLOUDY    46  39  76 N9        30.33S
6HR MIN TEMP:  45; 6HR MAX TEMP:  48; 6HR PCP: TRACE;

SIOUX FALLS    CLOUDY    45  38  76 N14G24    30.27R
6HR MIN TEMP:  45; 6HR MAX TEMP:  50; 6HR PCP: TRACE;

WINNER         CLOUDY    42  37  82 NW10      30.38S
YANKTON        CLOUDY    46  42  86 N17G25    30.27R
$$

MNZ071-072-080-081-089-090-097-098-250100-
SOUTHWEST MINNESOTA

CITY           SKY/WX    TMP DP  RH WIND       PRES   REMARKS
FAIRMONT       CLOUDY    49  44  83 N15       30.20R
JACKSON        CLOUDY    45  41  87 N12G22    30.22S
LUVERNE        CLOUDY    45  37  76 N12       30.26R
MARSHALL       MOSUNNY   51  40  65 N16       30.25F
6HR MIN TEMP:  45; 6HR MAX TEMP:  51; 6HR PCP: TRACE;

MONTEVIDEO     SUNNY     54  36  50 N16       30.26S
PIPESTONE      CLOUDY   N/A N/A N/A N9        30.25S
REDWOOD FALLS  CLOUDY    53  38  56 N9G20     30.23S
TRACY          CLOUDY    48  42  80 N9        30.25S
WINDOM         CLOUDY    46  30  53 NW14      30.23S
WORTHINGTON    CLOUDY    44  41  89 N14       30.24R
$$

IAZ001>003-012>014-020>022-031-032-NEZ013-014-SDZ071-250100-
NORTHWEST IOWA

CITY           SKY/WX    TMP DP  RH WIND       PRES   REMARKS
CHEROKEE       DRIZZLE   49  46  87 N9G16     30.20S
DENISON        CLOUDY    57  43  58 N15G23    30.17R
ESTHERVILLE    CLOUDY    47  43  86 N17G26    30.19R
LE MARS        LGT RAIN  50  46  87 N13G21    30.23R
ORANGE CITY    LGT RAIN  48  46  93 N14G20    30.23R
SHELDON        CLOUDY    46  45  93 N16       30.22R
SIOUX CITY     LGT RAIN  50  44  80 N10       30.22R
6HR MIN TEMP:  50; 6HR MAX TEMP:  63; 6HR PCP:  0.02;

SPENCER        CLOUDY    49  42  77 N18G28    30.21S
6HR MIN TEMP:  49; 6HR MAX TEMP:  62; 6HR PCP: TRACE;

STORM LAKE     CLOUDY    50  43  76 N18G24    30.19R
$$

ABBREVIATIONS USED IN REMARKS
   TC - TEMPERATURE IN CELSIUS
  WCI - WIND CHILL INDEX
   HX - HEAT INDEX
  VSB - VISIBILITY





USA.gov is the U.S. government's official web portal to all federal, state and local government web resources and services.